Flag for Germany Weather past 2 weeks in Bad Kreuznach, Rhineland-Palatinate, Germany

Now
63 °F

Overcast.


Feels Like: 63 °F
Forecast: 42 / 58 °F
Wind: 6 mph from North

Location: Wiesbaden Airport

Current Time: Sep 21, 2014 at 4:59:26 PM

Latest Report: Sep 21, 2014 at 4:04 PM


Visibility: N/A

Pressure: 29.98 "Hg

Humidity: 83%

Dew point: 57 °F

Location of Bad KreuznachLocation

Historic Weather in Bad Kreuznach — Graph

°F

Bad Kreuznach temperature yesterday

Maximum temperature yesterday: 73 °F (at 12:58 PM)
Minimum temperature yesterday: 59 °F (at 2:58 AM)
Average temperature yesterday: 64 °F

Past Weeks' High & Low Weather Summary

 TemperatureHumidityPressure
High78 °F (Sep 6, 4:58 PM)100% (Sep 19, 6:58 AM)30.20 "Hg (Sep 19, 6:58 AM)
Low52 °F (Sep 11, 2:58 AM)38% (Sep 9, 4:58 PM)29.86 "Hg (Sep 18, 2:58 AM)
Average64 °F79%30.00 "Hg
* Reported Sep 6 4:58 PM — Sep 21 4:04 PM, Bad Kreuznach, Weather by CustomWeather, © 2014

Note: Actual official high and low records may vary slightly from our data, if they occured in-between our weather recording intervals... More about our weather records

Advertising

Bad Kreuznach weather history for previous 24 hours

 ConditionsComfort  
Time TempWeatherWind HumidityBarometerVisibility
4:04 PM
Sep 21
63 °FOvercast.6 mph83%29.98 "HgN/A
3:58 PM62 °FLight rain. Overcast.8 mph87%29.98 "HgN/A
2:58 PM63 °FLight rain. Overcast.7 mph94%29.97 "HgN/A
2:02 PM64 °FLight rain. Scattered clouds.8 mph88%29.97 "HgN/A
1:58 PM65 °FLight rain. Partly sunny.7 mph87%29.97 "HgN/A
12:58 PM64 °FBroken clouds.6 mph88%29.97 "HgN/A
11:58 AM63 °FOvercast.5 mph96%29.98 "HgN/A
10:58 AM62 °FMostly cloudy.3 mph99%29.98 "HgN/A
9:58 AM61 °FOvercast.5 mph100%29.97 "HgN/A
9:01 AM61 °FOvercast.5 mph100%29.97 "HgN/A
8:58 AM61 °FDrizzle. Overcast.5 mph100%29.97 "HgN/A
8:03 AM61 °FLight rain. Fog.2 mph100%29.96 "Hg3 mi
7:58 AM61 °FLight rain. Fog.1 mph100%29.97 "Hg2 mi
7:04 AM61 °FFog.2 mph100%29.97 "HgN/A
6:58 AM61 °FLight rain. Fog.No wind100%29.97 "Hg5 mi
5:58 AM61 °FFog.2 mph100%29.97 "Hg4 mi
4:58 AM61 °FFog.No wind100%29.96 "Hg4 mi
4:00 AM61 °FFog.1 mph100%29.97 "Hg6 mi
3:01 AM61 °FPassing clouds.3 mph100%29.97 "HgN/A
2:58 AM61 °FPassing clouds.5 mph100%29.96 "HgN/A
1:58 AM60 °FFog.3 mph100%29.98 "Hg6 mi
12:58 AM61 °FLight rain. Partly cloudy.5 mph100%29.98 "HgN/A
11:58 PM
Sep 20
61 °FPassing clouds.2 mph100%29.98 "HgN/A
10:58 PM61 °FMostly cloudy.No wind100%30.00 "HgN/A
10:02 PM61 °FPartly cloudy.5 mph100%29.99 "HgN/A
9:58 PM61 °FLight rain. Mostly cloudy.3 mph98%29.99 "HgN/A
8:58 PM61 °FThunderstorms. Fog.10 mph88%29.98 "Hg4 mi
8:03 PM66 °FBroken clouds.2 mph88%29.96 "HgN/A
7:58 PM66 °FScattered clouds.2 mph94%29.96 "HgN/A
Weather by CustomWeather, © 2014

See weather overviewHow to use our weather pages